Regional Weather Roundup
Issued by NWS

Home | Current Version | Previous Version | Graphics & Text | Print | Product List | Glossary On
Versions: 1 2 3 4 5 6 7 8 9 10 11 12 13 14 15 16 17 18 19 20 21 22 23 24 25 26 27 28 29 30 31 32 33 34 35 36 37 38 39 40 41 42 43 44 45 46 47 48 49 50
000
ASUS43 KLOT 251606
RWRIL

ILLINOIS REGIONAL WEATHER ROUNDUP
NATIONAL WEATHER SERVICE CHICAGO/ROMEOVILLE IL
1000 AM CST SUN JAN 25 2015

NOTE: "FAIR" INDICATES FEW OR NO CLOUDS BELOW 12,000 FEET WITH NO
SIGNIFICANT WEATHER AND/OR OBSTRUCTIONS TO VISIBILITY.

* THESE STATIONS ARE NOT UNDER NWS QUALITY CONTROL. THEY ALSO MAY NOT
  REPORT WEATHER SUCH AS PRECIPITATION OR FOG.

ILZ001-002-007-009-015-016-024-251700-
NORTHWEST ILLINOIS

CITY           SKY/WX    TMP DP  RH WIND       PRES   REMARKS
MOLINE         NOT AVBL
STERLING*      CLOUDY    28  25  86 NE22G30   29.77R VSB 1   WCI  15
SAVANNA*       LGT SNOW  30  26  83 NE17      29.81R WCI  18
$$

ILZ003-004-008-010-011-017-018-251700-
NORTH CENTRAL ILLINOIS

CITY           SKY/WX    TMP DP  RH WIND       PRES   REMARKS
ROCKFORD       LGT SNOW  28  22  78 NE18G25   29.83R VSB 1   WCI  15
FREEPORT*      LGT SNOW  28  25  87 NE17G23   29.83R WCI  16
ROCHELLE*      LGT SNOW  28  26  91 NE23G29   29.78R WCI  14
DE KALB*       MIX PCPN  27  25  90 NE24      29.77R WCI  13
PERU*          LGT SNOW  33  32  98 NE20      29.73R WCI  21
$$

ILZ005-006-012>014-019>023-251700-
NORTHEAST ILLINOIS

CITY           SKY/WX    TMP DP  RH WIND       PRES   REMARKS
CHICAGO-OHARE  LGT SNOW  31  29  92 NE15G26   29.78R FOG     WCI  20
CHICAGO-MIDWAY LGT SNOW  34  32  92 NE21      29.77R FOG     WCI  22
AURORA         LGT SNOW  32  28  85 NE18      29.75R VSB 3/4 WCI  20
LANSING*       LGT SNOW  33  32  96 NE15      29.75R WCI  23
JOLIET*        MIX PCPN  33  32  97 NE16G22   29.74R WCI  22
WAUKEGAN       LGT SNOW  29  25  85 NE17G24   29.83R FOG     WCI  17
DUPAGE AIRPORT LGT SNOW  31  29  92 NE17G24   29.76R FOG     WCI  19
KANKAKEE*      LGT SNOW  33  32  98 NE13      29.71R VSB 1   WCI  23
WHEELING       LGT SNOW  30  28  92 NE17      29.82R VSB 1   WCI  18
MORRIS*        LGT SNOW  33  33 100 NE8       29.72R WCI  26
ROMEOVILLE*    LGT SNOW  33  32  98 NE18G25   29.74R WCI  21
NORTHERLY ISL    N/A     32  31  96 NE21        N/A  WCI  20
$$

LMZ740>746-251700-
SOUTHERN LAKE MICHIGAN

STATION/POSITION SKY/WX   TEMP    WIND        PRES    VSBY  WAVE
                          AIR SEA DIR/SP/G                  HT/PER
                          (F)     (DEG/KT/KT) (MB)    (MI)  (FT/S)
WAUKEGAN HARBOR            29      40/ 24/ 32   N/A
HARRISON CRIB              32      40/ 23/ 27   N/A
BURNHAM HARBOR             32      50/ 17/ 23   N/A
CALUMET HARBOR             32      30/ 17/ 23   N/A
MICHIGAN CITY              33      30/ 20/ 22   N/A
$$

ILZ025>027-034>036-040-047-049-050-058-095>099-251700-
WEST-CENTRAL ILLINOIS

CITY           SKY/WX    TMP DP  RH WIND       PRES   REMARKS
QUINCY         LGT RAIN  40  38  93 NE13      29.60R FOG
GALESBURG*     LGT SNOW  32  32  99 NE17      29.69R WCI  21
MACOMB*        LGT RAIN  35  35  99 NE21      29.68R WCI  24
JACKSONVILLE*  CLOUDY    44  42  91 NE9       29.60R
PITTSFIELD*    CLOUDY    42  38  88 N6        29.60R
$$

ILZ028>032-037-038-041>044-048-051>054-059>061-251700-
CENTRAL ILLINOIS

CITY           SKY/WX    TMP DP  RH WIND       PRES   REMARKS
PONTIAC        LGT SNOW  34  33  99 NE20      29.69R WCI  22
BLOOMINGTON    LGT RAIN  34  34 100 NE15      29.66R FOG     WCI  24
DECATUR        LGT RAIN  38  36  92 NE7       29.62S WCI  33
PEORIA         LGT SNOW  36  32  85 NE16      29.67R FOG     WCI  26
LACON*         LGT SNOW  32  31  96 NE10G17   29.70R WCI  24
LINCOLN*       RAIN      37  35  95 NE9       29.64R WCI  30
SPRINGFIELD    CLOUDY    42  39  89 NE12      29.61R
TAYLORVILLE    CLOUDY    37  37 100 NE5       29.61R WCI  34
$$

ILZ033-039-045-046-055>057-062-063-251700-
EAST-CENTRAL ILLINOIS

CITY           SKY/WX    TMP DP  RH WIND       PRES   REMARKS
CHAMPAIGN      LGT RAIN  35  34  96 NE10      29.63S FOG     WCI  27
DANVILLE*      LGT RAIN  35  34  96 E6        29.64R WCI  30
RANTOUL*       RAIN      36  35  96 NE9       29.65R WCI  29
MATTOON        LGT RAIN  38  38 100 SE3       29.61S FOG
PARIS*         DRIZZLE   37  36  96 CALM      29.65R
$$

ILZ079-100>102-251700-
SOUTHWEST ILLINOIS

CITY           SKY/WX    TMP DP  RH WIND       PRES   REMARKS
ALTON          CLOUDY    45  43  93 VRB6      29.58F
BELLEVILLE     DRIZZLE   43  42  98 SE2       29.58S
CAHOKIA*       CLOUDY    46  43  89 S5        29.58S
SPARTA*        CLOUDY    42  37  82 S7        29.60S
$$

ILZ064>066-069>071-074>076-080>082-084>086-088>090-092>094-251700-
SOUTH-CENTRAL ILLINOIS

CITY           SKY/WX    TMP DP  RH WIND       PRES   REMARKS
CARBONDALE     LGT RAIN  41  38  89 S8        29.62F FOG
CAIRO*         RAIN      44  38  82 S9G20     29.65F
EFFINGHAM*     RAIN      39  37  91 E3        29.63S
MARION         LGT RAIN  43  39  87 S9        29.63F
MT. VERNON     CLOUDY    41  36  81 S6        29.62S
CENTRALIA*     LGT RAIN  42  37  84 S6        29.60S
SALEM*         CLOUDY    44  39  83 S8        29.60S
METROPOLIS*    DRIZZLE   43  38  82 S8        29.65S
$$

ILZ067-068-072-073-078-083-087-091-251700-
SOUTHEAST ILLINOIS

CITY           SKY/WX    TMP DP  RH WIND       PRES   REMARKS
LAWRENCEVILLE  RAIN      40  37  89 S8        29.65S FOG
FLORA*         CLOUDY    40  38  91 S5        29.63R
FAIRFIELD*     LGT RAIN  41  38  91 S6        29.62S
HARRISBURG*    LGT RAIN  41  40  95 S7        29.65S
ROBINSON*      LGT RAIN  37  36  96 E5        29.65S WCI  33
CARMI*         RAIN      43  41  93 SE6       29.63F
$$

ABBREVIATIONS USED IN REMARKS
   TC - TEMPERATURE IN CELSIUS
  WCI - WIND CHILL INDEX
   HX - HEAT INDEX
  VSB - VISIBILITY
$$




USA.gov is the U.S. government's official web portal to all federal, state and local government web resources and services.